SCP
1 1 1 1 1 0 0 0 0 0 0 0 0 0 0 0 0 0 0 0 0 0 0 0 0 0 0 0 0 0 0 0 0 0 0 0 0 0 0 0 0 0 0
1 1 1 1 1 1 0 0 0 0 0 0 0 0 0 0 0 0 0 0 0 0 0 0 0 0 0 0 0 0 0 0 0 0 0 0 0 0 0 0 0 0 0
1 1 1 1 1 1 1 0 0 0 0 0 0 0 0 0 0 0 0 0 0 0 0 0 0 0 0 0 0 0 0 0 0 0 0 0 0 0 0 0 0 0 0
1 1 1 1 1 1 1 0 0 0 0 0 0 0 0 0 0 0 0 0 0 0 0 0 0 0 0 0 0 0 0 0 0 0 0 0 0 0 0 0 0 0 0
1 1 1 1 1 1 1 1 0 0 0 0 0 0 0 0 0 0 0 0 0 0 0 0 0 0 0 0 0 0 0 0 0 0 0 0 0 0 0 0 0 0 0
1 1 1 1 1 1 1 1 1 0 0 0 0 0 0 0 0 0 0 0 0 0 0 0 0 0 0 0 0 0 0 0 0 0 0 0 0 0 0 0 0 0 0
1 1 1 1 1 1 1 1 1 0 0 0 0 0 0 0 0 0 0 0 0 0 0 0 0 0 0 0 0 0 0 0 0 0 0 0 0 0 0 0 0 0 0
1 1 1 1 1 1 1 1 1 0 0 0 0 0 0 0 0 0 0 0 0 0 0 0 0 0 0 0 0 0 0 0 0 0 0 0 0 0 0 0 0 0 0
1 1 1 1 1 1 1 1 1 1 0 0 0 0 0 0 0 0 0 0 0 0 0 0 0 0 0 0 0 0 0 0 0 0 0 0 0 0 0 0 0 0 0
2 1 1 1 1 1 1 1 1 0 0 0 0 0 0 0 0 0 0 0 0 0 0 0 0 0 0 0 0 0 0 0 0 0 0 0 0 0 0 0 0 0 0
1 1 1 1 1 1 1 1 0 0 0 0 0 0 0 0 0 0 0 0 0 0 0 0 0 0 0 0 0 0 0 0 0 0 0 0 0 0 0 0 0 0 0
1 1 1 1 1 1 1 0 0 0 0 0 0 0 0 0 0 0 0 0 0 0 0 0 0 0 0 0 0 0 0 0 0 0 0 0 0 0 0 0 0 0 0
1 1 1 1 1 1 1 0 0 0 0 0 0 0 0 0 0 0 0 0 0 0 0 0 0 0 0 0 0 0 0 0 0 0 0 0 0 0 0 0 0 0 0
1 1 1 1 1 1 1 1 0 0 0 0 0 0 0 0 0 0 0 0 0 0 0 0 0 0 0 0 0 0 0 0 0 0 0 0 0 0 0 0 0 0 0
1 1 1 1 1 1 1 1 0 0 0 0 0 0 0 0 0 0 0 0 0 0 0 0 0 0 0 0 0 0 0 0 0 0 0 0 0 0 0 0 0 0 0
1 1 1 1 1 1 1 1 0 0 0 0 0 0 0 0 0 0 0 0 0 0 0 0 0 0 0 0 0 0 0 0 0 0 0 0 0 0 0 0 0 0 0
1 1 1 1 1 1 1 0 0 0 0 0 0 0 0 0 0 0 0 0 0 0 0 0 0 0 0 0 0 0 0 0 0 0 0 0 0 0 0 0 0 0 0
1 1 1 1 1 0 0 0 0 0 0 0 0 0 0 0 0 0 0 0 0 0 0 0 0 0 0 0 0 0 0 0 0 0 0 0 0 0 0 0 0 0 0
0 0 0 0 0 0 0 0 0 0 0 0 0 0 0 0 0 0 0 0 0 0 0 0 0 0 0 0 0 0 0 0 0 0 0 0 0 0 0 0 0 0 0
0 0 0 0 0 0 0 0 0 0 0 0 0 0 0 0 0 0 0 0 0 0 0 0 0 0 0 0 0 0 0 0 0 0 0 0 0 0 0 0 0 0 0
0 0 0 0 0 0 0 0 0 0 0 0 0 0 0 0 0 0 0 0 0 0 0 0 0 0 0 0 0 0 0 0 0 0 0 0 0 0 0 0 0 0 0
0 0 0 0 0 0 0 0 0 0 0 0 0 0 0 0 0 0 0 0 0 0 0 0 0 0 0 0 0 0 0 0 0 0 0 0 0 0 0 0 0 0 0
0 0 0 0 0 0 0 0 0 0 0 0 0 0 0 0 0 0 0 0 0 0 0 0 0 0 0 0 0 0 0 0 0 0 0 0 0 0 0 0 0 0 0
0 0 0 0 0 0 0 0 0 0 0 0 0 0 0 0 0 0 0 0 0 0 0 0 0 0 0 0 0 0 0 0 0 0 0 0 0 0 0 0 0 0 0
0 0 0 0 0 0 0 0 0 0 0 0 0 0 0 0 0 0 0 0 0 0 0 0 0 0 0 0 0 0 0 0 0 0 0 0 0 0 0 0 0 0 0
0 0 0 0 0 0 0 0 0 0 0 0 0 0 0 0 0 0 0 0 0 0 0 0 0 0 0 0 0 0 0 0 0 0 0 0 0 0 0 0 0 0 0
Wind_Speed
9 11 13 13 12 12 12 11 11 11 11 11 11 12 12 12 12 12 13 12 12 12 13 14 15 15 15 15 16 16 16 16 17 17 16 16 16 17 17 16 15 12 17
11 13 14 13 12 12 11 11 11 10 10 11 11 12 12 12 12 12 12 12 12 12 13 14 14 14 14 15 15 15 15 14 14 14 13 12 14 16 18 17 16 12 17
12 13 12 12 12 12 11 11 10 10 10 11 11 12 12 12 12 12 12 12 12 13 13 14 14 14 14 14 14 13 13 11 10 10 11 7 10 16 17 17 17 17 17
12 11 11 12 12 12 11 11 10 10 10 10 11 11 11 12 12 12 12 12 12 13 13 13 14 14 13 13 13 12 11 9 8 8 7 7 8 15 16 16 16 16 16
10 10 11 12 12 11 11 11 10 10 10 10 10 11 11 11 11 11 11 12 12 12 13 13 13 13 13 12 12 10 9 8 8 9 8 7 6 14 15 15 16 16 16
10 9 10 11 11 11 11 11 11 10 10 10 10 10 10 11 11 11 11 11 11 12 12 12 13 13 12 11 10 9 8 7 7 7 7 7 6 13 15 15 15 15 15
8 9 10 11 11 11 11 11 11 11 10 10 10 10 10 11 11 11 11 11 11 11 12 12 12 12 11 10 9 8 7 7 6 7 7 6 7 13 14 14 14 14 14
8 9 10 11 10 10 10 10 10 10 10 10 10 10 10 10 11 11 11 11 11 11 11 11 12 11 10 9 8 7 7 7 7 9 7 6 10 13 13 13 13 13 14
8 8 7 7 8 9 10 10 10 10 10 10 9 9 9 9 10 10 10 10 11 11 11 11 11 11 10 9 7 6 7 8 5 5 8 5 10 12 12 12 12 12 13
6 7 7 6 6 6 7 9 10 10 10 10 10 9 9 9 9 9 9 9 10 11 10 11 11 10 9 8 6 4 5 5 5 6 4 6 10 11 11 11 11 11 12
5 5 6 5 5 5 5 8 8 9 9 9 8 9 7 5 5 6 8 9 10 10 10 10 10 9 8 6 4 3 3 3 5 5 4 8 10 10 11 11 11 11 11
4 4 4 5 5 5 5 5 4 5 5 5 5 5 3 4 4 6 8 9 9 8 8 9 9 7 4 2 1 1 1 4 5 4 4 9 10 10 10 10 10 10 11
4 4 4 4 4 4 3 3 2 2 3 3 4 4 3 3 4 4 3 4 5 5 4 5 4 2 2 2 1 1 2 3 3 3 4 9 9 10 10 10 10 10 11
3 4 3 4 4 4 3 3 3 2 2 2 2 4 3 2 3 3 3 3 3 2 3 2 1 2 3 3 2 3 3 3 4 3 4 8 8 9 9 9 9 9 10
3 3 3 4 4 3 3 3 3 3 2 2 2 2 3 3 3 3 3 2 2 2 2 2 2 2 3 3 3 4 4 4 5 4 3 7 7 7 8 8 8 8 9
3 3 3 3 4 4 3 3 3 3 2 3 2 2 3 2 3 3 3 3 2 2 2 2 3 2 2 2 3 4 4 4 4 4 3 4 7 7 6 6 7 7 9
3 3 3 3 4 3 3 3 3 3 3 3 2 3 3 3 3 3 3 3 2 2 3 3 3 2 2 3 3 4 3 3 4 4 4 3 3 5 6 5 6 7 8
3 3 3 3 3 3 3 3 3 3 3 3 3 3 3 3 3 3 3 2 2 2 2 3 3 3 2 3 3 2 3 3 3 3 3 3 3 3 3 5 6 6 6
3 3 3 4 3 3 3 3 3 3 3 3 3 2 3 3 3 3 3 2 3 3 2 3 2 3 3 3 3 3 3 2 2 3 3 4 3 3 2 4 6 6 5
3 3 4 4 4 3 3 3 3 3 2 2 2 2 3 2 2 3 3 3 3 2 2 3 3 3 3 3 3 3 2 2 2 2 2 3 3 3 3 3 3 3 4
4 4 3 3 3 3 2 2 2 1 1 2 2 2 3 2 2 3 2 3 2 2 3 3 3 4 2 3 3 2 2 2 2 1 2 2 2 2 3 3 2 2 1
3 3 3 3 2 2 2 1 2 2 1 1 1 2 2 2 2 2 3 2 2 2 3 3 3 3 2 2 3 2 1 1 1 1 1 1 2 2 2 2 2 2 1
3 2 2 2 2 3 3 2 2 2 2 1 1 1 1 2 2 1 2 2 2 2 2 3 4 4 3 1 1 2 3 3 1 0 1 1 2 1 1 1 2 2 2
2 2 3 3 3 3 3 2 3 2 2 1 1 1 1 2 2 1 1 2 2 2 2 2 3 3 4 3 1 0 1 2 3 1 1 1 2 1 1 1 1 1 1
3 3 2 3 3 3 2 2 2 2 1 1 2 2 1 1 1 1 1 1 1 1 2 2 2 2 3 3 2 1 1 0 1 3 2 2 1 1 1 2 1 1 1
4 3 3 3 3 3 2 2 2 2 2 2 2 1 1 1 1 1 1 1 1 1 2 2 2 2 2 3 2 2 2 2 2 2 2 2 2 2 2 2 2 2 2
Wind_Direction
125 135 140 136 132 131 132 131 129 127 125 124 121 118 113 110 106 103 102 101 101 101 99 96 93 90 87 84 83 82 81 80 81 79 74 70 69 69 70 67 67 64 68
127 135 140 135 133 131 131 131 129 126 125 127 125 121 118 114 111 108 105 103 102 102 100 98 95 92 89 87 86 86 87 86 87 85 79 70 69 71 70 68 69 68 67
125 134 141 136 133 133 131 127 125 126 127 127 126 124 120 117 114 109 106 105 102 101 100 98 96 93 90 89 90 90 89 88 88 86 83 78 73 74 74 72 71 69 67
125 135 141 136 135 134 133 131 128 126 126 127 125 124 122 120 116 113 110 105 102 101 99 97 96 94 92 92 91 89 86 81 73 74 77 74 73 76 75 74 72 71 69
124 133 137 137 136 135 134 131 129 128 126 124 125 124 122 121 119 115 111 104 101 101 100 99 98 95 94 92 90 87 79 68 65 73 72 70 70 77 76 75 73 72 71
124 129 133 136 136 135 133 132 131 130 127 125 123 124 123 122 120 114 109 106 104 104 103 102 99 97 95 92 89 83 70 56 59 73 73 71 70 79 78 76 75 74 73
119 124 135 133 133 133 134 133 133 132 129 126 124 121 123 121 118 113 109 110 111 110 107 106 103 101 97 93 86 72 58 52 70 72 72 72 75 82 81 78 76 75 74
114 119 132 128 127 130 132 130 128 127 125 124 122 119 118 120 118 114 113 113 113 112 111 109 107 103 99 95 85 63 47 57 76 83 77 73 80 83 81 80 79 77 75
110 117 124 129 127 123 125 125 123 121 120 120 118 115 114 114 116 118 117 117 116 115 112 109 109 105 102 96 83 58 49 57 62 80 85 78 82 84 84 82 81 80 76
107 115 124 127 127 125 125 124 121 120 121 119 117 115 115 115 115 116 116 114 115 116 114 110 109 107 103 96 80 57 50 58 71 73 77 83 86 87 86 84 83 81 79
104 112 122 126 125 124 128 130 125 123 124 123 122 124 127 125 121 116 115 113 113 115 117 116 114 112 107 98 83 58 57 73 78 75 73 85 91 90 89 87 85 83 82
113 112 115 119 122 126 131 130 135 134 139 137 137 142 140 126 124 122 116 120 119 119 122 126 125 126 123 119 96 69 67 86 82 81 80 87 91 91 89 88 87 86 84
113 105 103 112 118 117 117 124 121 123 136 137 141 142 132 125 125 119 122 124 124 132 130 135 137 145 136 121 114 91 69 83 84 82 81 87 91 92 90 89 87 86 85
111 102 96 103 108 113 112 119 119 115 124 128 139 138 132 129 129 132 132 138 142 142 138 146 150 139 126 116 115 97 80 84 87 83 81 83 87 92 92 93 92 89 86
106 105 107 101 107 112 109 117 115 118 121 115 106 110 118 131 139 134 135 134 139 134 140 143 137 125 121 124 107 95 92 93 98 90 86 85 86 91 96 96 97 95 93
100 100 103 104 101 109 108 113 115 114 110 109 109 104 102 111 125 132 128 127 122 130 138 137 123 115 102 94 94 92 88 90 97 102 103 91 84 85 95 100 98 101 100
103 95 92 100 94 100 110 115 109 110 113 106 103 101 94 100 109 114 120 121 125 123 124 118 109 100 95 90 86 85 81 83 95 103 107 107 97 80 78 96 104 105 104
93 96 91 86 80 84 90 103 103 109 106 96 89 89 86 90 99 104 114 117 120 109 105 111 114 106 95 90 85 76 73 72 82 100 102 100 99 95 80 89 99 103 104
77 86 87 84 77 74 78 82 86 92 103 105 93 89 90 86 93 106 111 117 114 110 112 114 107 120 114 100 93 78 68 65 59 78 96 98 97 104 106 101 96 93 96
67 73 80 79 78 73 72 77 74 75 80 92 98 96 96 101 104 101 108 114 111 112 117 117 111 103 117 120 102 82 71 73 61 61 85 96 102 109 113 116 107 96 94
59 66 72 78 77 79 87 97 104 104 87 86 92 106 101 101 102 107 113 121 120 124 133 133 126 119 121 122 106 88 47 56 78 71 73 91 100 106 106 108 113 116 118
61 52 60 70 73 82 75 98 112 110 98 90 85 92 95 90 93 110 116 126 130 133 131 133 128 126 133 154 139 132 128 7 356 65 81 110 117 111 113 121 119 111 117
65 58 51 61 69 70 64 90 98 92 86 74 81 91 90 94 91 101 116 120 132 139 154 152 145 144 157 195 166 152 155 186 176 236 204 144 131 127 136 133 138 135 126
62 56 55 57 60 63 69 93 114 121 131 135 130 112 100 113 113 92 107 120 137 143 156 172 160 155 154 174 214 218 150 141 144 163 238 191 161 164 178 175 159 156 151
67 60 62 63 58 56 59 68 97 104 102 108 114 124 117 108 117 115 116 129 140 146 157 164 162 167 165 169 172 177 176 78 136 148 185 201 202 201 185 179 171 180 169
68 59 60 68 63 53 54 66 65 94 106 108 130 140 140 126 112 129 121 119 139 145 157 171 177 181 181 170 168 166 167 167 181 167 172 186 199 210 191 182 188 198 187